Regional Weather Roundup
Issued by NWS

Home | Current Version | Previous Version | Text Only | Print | Product List | Glossary Off
Versions: 1 2 3 4 5 6 7 8 9 10 11 12 13 14 15 16 17 18 19 20 21 22 23 24 25 26 27

000
ASUS43 KDMX 160807
RWRIA

WEATHER ROUNDUP FOR IOWA
NATIONAL WEATHER SERVICE DES MOINES IA
300 AM CDT WED APR 16 2014

NOTE: "FAIR" INDICATES FEW OR NO CLOUDS BELOW 12,000 FEET WITH NO
SIGNIFICANT WEATHER AND/OR OBSTRUCTIONS TO VISIBILITY.

* - THESE STATIONS ARE NOT NWS STATIONS...THUS NOT UNDER NWS
QUALITY CONTROL.  THEY ALSO DO NOT REPORT WEATHER SUCH
AS PRECIPITATION OR FOG.

IAZ001>003-012>014-020>022-031>034-043>046-160900-
   NORTHWEST IOWA

CITY           SKY/WX    TMP DP  RH WIND       PRES   REMARKS
CARROLL *      PTCLDY    41  30  65 S21       29.82F
CHEROKEE *     MOCLDY    37  30  75 SE9       29.77F WCI  31
DENISON *      PTCLDY    45  30  57 S22G31    29.77F
LE MARS *      CLOUDY    45  30  57 SE17G25   29.70F
ORANGE CITY *  MOCLDY    39  28  65 SE9       29.71F WCI  33
SHELDON *      MOCLDY    37  28  70 SE20G25   29.72F WCI  27
SIOUX CITY     CLOUDY    46  30  53 SE17      29.70F
SPENCER        MOCLDY    37  27  67 SE21      29.79F WCI  26
STORM LAKE *   PTCLDY    36  30  80 SE18      29.78F WCI  25
$$

IAZ055>058-069>071-079>083-090>094-160900-
   SOUTHWEST IOWA

CITY           SKY/WX    TMP DP  RH WIND       PRES   REMARKS
ATLANTIC *     MOCLDY    43  30  61 S21G28    29.83F
AUDUBON *      CLEAR     45  27  49 S22G32    29.83F
CLARINDA *     CLEAR     45  30  57 S16G23    29.89F
COUNCIL BLFS * CLEAR     45  30  57 S18G28    29.79F
CRESTON *      CLEAR     41  28  60 S21G26    29.90S
HARLAN  *      CLEAR     43  30  61 S22G30    29.83F
LAMONI         CLEAR     40  27  59 S15G23    29.94F WCI  32
RED OAK *      CLOUDY    43  32  65 S18       29.85F
SHENANDOAH *   CLEAR     46  30  53 S20G30    29.86F
$$

IAZ047>049-059>061-072>074-084-160900-
   CENTRAL IOWA

CITY           SKY/WX    TMP DP  RH WIND       PRES   REMARKS
AMES           CLOUDY    36  26  67 SE14      29.93F WCI  27
ANKENY *       CLOUDY    37  27  65 SE12      29.93F WCI  30
CHARITON *     CLOUDY    39  27  60 S17       29.96S WCI  30
DES MOINES     MOCLDY    41  28  60 S16       29.94F
GRINNELL*      MOCLDY    36  25  64 SE15      29.99F WCI  26
KNOXVILLE *    CLOUDY    37  27  65 SE13      29.96F WCI  29
MARSHALLTOWN   CLOUDY    36  24  62 SE20G26   29.98F WCI  25
NEWTON *       MOCLDY    36  27  69 SE15G21   29.98F WCI  26
PELLA *        PTCLDY    37  27  65 SE10      29.99S WCI  30
PERRY *          N/A     39  30  70 SE14      29.89F WCI  31
$$

IAZ004>006-015-016-023>025-035-036-160900-
   NORTH CENTRAL IOWA

CITY           SKY/WX    TMP DP  RH WIND       PRES   REMARKS
ALGONA *       MOCLDY    36  25  64 SE25G33   29.85F WCI  23
CLARION *      CLOUDY    34  25  69 SE22G30   29.90F WCI  22
ESTHERVILLE    MOCLDY    33  25  72 SE24G32   29.82F WCI  20
FORT DODGE *   CLOUDY    37  25  60 SE10G22   29.88F WCI  30
MASON CITY     CLOUDY    32  21  64 SE18G26   29.96F WCI  20
FOREST CITY *  CLOUDY    32  23  69 SE18G26   29.92F WCI  20
IOWA FALLS *   CLOUDY    34  27  75 SE16      29.96F WCI  23
$$

IAZ007>011-017>019-026>030-037>042-050>054-066-160900-
   NORTHEAST IOWA

CITY           SKY/WX    TMP DP  RH WIND       PRES   REMARKS
CEDAR RAPIDS   MOCLDY    32  21  64 SE13      30.06F WCI  22
CHARLES CITY * CLOUDY    32  19  59 SE15G23   30.01F WCI  22
CLINTON *      PTCLDY    30  19  64 SE10      30.17S WCI  21
DECORAH *      CLOUDY    32  19  59 SE12G18   30.05F WCI  23
DUBUQUE        CLEAR     29  21  72 SE13      30.11F WCI  19
MONTICELLO *   CLOUDY    32  18  55 SE14      30.10S WCI  22
OELWEIN *      PTCLDY   N/A N/A N/A SE17      30.05F
WATERLOO       PTCLDY    33  18  53 SE16      30.02F WCI  23
$$

IAZ064-065-067-068-078-160900-
   EAST CENTRAL IOWA

CITY           SKY/WX    TMP DP  RH WIND       PRES   REMARKS
DAVENPORT      CLEAR     31  19  61 SE10      30.14S WCI  22
IOWA CITY      MOCLDY    32  23  69 SE6       30.10F WCI  26
MT. PLEASANT * CLEAR     36  25  64 SE13      30.09F WCI  27
MUSCATINE *    CLOUDY    34  23  64 SE7       30.12F WCI  28
QUAD CITIES    CLEAR     31  20  63 SE8       30.15S WCI  23
$$

IAZ062-063-075>077-085>089-095>099-160900-
   SOUTHEAST IOWA

CITY           SKY/WX    TMP DP  RH WIND       PRES   REMARKS
BURLINGTON     CLEAR     37  23  56 S10       30.11S WCI  30
FAIRFIELD *    MOCLDY    36  25  64 SE16      30.05F WCI  26
FORT MADISON * CLEAR     36  25  64 S8        30.11F WCI  29
KEOKUK *       CLEAR     37  23  56 S9        30.10S WCI  31
OSKALOOSA *      N/A     34  28  80 SE12      30.02F WCI  25
CENTERVILLE *  CLEAR     39  25  56 SE15      30.01F WCI  31
OTTUMWA        CLEAR     38  24  57 S18G28    30.01F WCI  28
WASHINGTON *   PTCLDY    34  25  69 SE13      30.07F WCI  25
$$

ABBREVIATIONS USED IN REMARKS
   TC - TEMPERATURES IN CELSIUS
  WCI - WIND CHILL INDEX
   HX - HEAT INDEX
  VSB - VISIBILITY
$$




USA.gov is the U.S. government's official web portal to all federal, state and local government web resources and services.